This is the latest recevied weather packets stored in our database for station/object KB9HUO. If no packets are shown the sender has not sent any weather packets the latest 10 day(s).
| Time | Temp. | Humidity | Pressure | Rain* | Wind** | Luminosity | Snow |
|---|---|---|---|---|---|---|---|
| 1778029594 | 11.11° C | 97% | 1008.2 hPa | 15.49 mm | - | 0 W/m² | - |
| 1778029291 | 11.11° C | 97% | 1007.5 hPa | 11.94 mm | - | 0 W/m² | - |
| 1778028988 | 11.11° C | 97% | 1009 hPa | 3.05 mm | - | 0 W/m² | - |
| 1778028684 | 11.11° C | 97% | 1008.4 hPa | 6.6 mm | - | 0 W/m² | - |
| 1778028381 | 11.11° C | 97% | 1008.4 hPa | 7.87 mm | - | 0 W/m² | - |
| 1778028078 | 11.11° C | 97% | 1008.4 hPa | 7.87 mm | - | 0 W/m² | - |
| 1778027775 | 11.11° C | 97% | 1008 hPa | 16.76 mm | - | 1 W/m² | - |
| 1778027470 | 11.11° C | 97% | 1008 hPa | 19.81 mm | - | 1 W/m² | - |
| 1778027167 | 11.11° C | 97% | 1008.2 hPa | 10.67 mm | - | 2 W/m² | - |
| 1778026862 | 11.67° C | 97% | 1008.5 hPa | 7.11 mm | - | 0 W/m² | - |
| 1778026559 | 11.67° C | 96% | 1008.1 hPa | 8.89 mm | - | 1 W/m² | - |
| 1778026256 | 12.22° C | 96% | 1008.2 hPa | 6.6 mm | - | 2 W/m² | - |
| 1778025954 | 12.78° C | 97% | 1008.2 hPa | 3.05 mm | - | 1 W/m² | - |
| 1778025651 | 12.78° C | 97% | 1007.9 hPa | 1.27 mm | - | 1 W/m² | - |
| 1778025349 | 13.33° C | 97% | 1007.6 hPa | 1.78 mm | - | 1 W/m² | - |
| 1778025045 | 13.33° C | 97% | 1007.6 hPa | 3.05 mm | - | 2 W/m² | - |
| 1778024743 | 13.33° C | 97% | 1007.7 hPa | 3.05 mm | - | 4 W/m² | - |
| 1778024439 | 13.89° C | 97% | 1007.6 hPa | 10.67 mm | - | 5 W/m² | - |
| 1778024137 | 15° C | 96% | 1007.6 hPa | 13.72 mm | - | 4 W/m² | - |
| 1778023834 | 16.11° C | 97% | 1007.6 hPa | 7.87 mm | - | 5 W/m² | - |
| 1778023532 | 16.11° C | 97% | 1007.4 hPa | 3.05 mm | - | 5 W/m² | - |
| 1778023229 | 16.11° C | 97% | 1007.2 hPa | 4.83 mm | - | 5 W/m² | - |
| 1778022926 | 16.11° C | 97% | 1007.1 hPa | 3.05 mm | - | 5 W/m² | - |
| 1778022625 | 16.11° C | 97% | 1007.2 hPa | 1.27 mm | - | 5 W/m² | - |
| 1778022321 | 16.11° C | 97% | 1007.3 hPa | 3.05 mm | - | 6 W/m² | - |
* Rain latest hour (hover to see other rain measurements)
** Current wind speed in m/s (hover to see current wind gust speed)